DECAYED
Showing default

QUANTUTONG 1, 43158 (Decayed)

Orbit data source: Space-Track

QUANTUTONG 1, 43158 was a payload satellite owned by QuanTuTong (CN) in SSO that was launched on Fri, 19 Jan 2018 UTC via a CHANG ZHENG 11 launch vehicle from the Jiuquan Satellite Launch Center, China (JSC). Payload-class satellites include a variety of spacecraft equipped with specific instruments for various scientific and technological missions. These include communications satellites like Starlink; space stations such as the ISS; scientific satellites like the Hubble; Earth observation satellites from companies like Planet Labs, Umbra, and HawkEye 360; GPS; miniature CubeSats for education and research; and military/defense satellites.

Loading next visibility...
Identifier
43158, 2018-008D
Orbit
Decayed
Country
Flag of CNCN / PRC
Related business
Flag of CNFull Map Network Co. (CN)
Manufacturer
Changsha Tianyi
Mission
Decayed Commercial Navigation
Bus & Motor
CUBESAT 6U, Unknown motor
Mass
8 kg wet, 8 kg dry
Launch date (UTC)
2018-01-19 (8 years ago)
Launch vehicle
CHANG ZHENG 11
Launch site
Jiuquan Satellite Launch Center, China (JSC)
Object type
Payload
Rocket body
Debris
Shape & HBR
Box, 0.1 m
Radar Cross Section
0.080 m², Medium (>0.1 m² and < 1m²)

Expand to show TLE details & history
Last TLE update: 11 months ago

TLE from 11 months ago
0 QUANTUTONG 1
1 43158U 18008D   24289.57081905  .01911305  30434-2  22393-2 0  9995
2 43158  97.2486 341.2486 0006509 265.8690  94.1850 16.09457699373267
Epoch: 2024-10-15T13:41Z
TLE epoch observation values (Epoch: 2024-10-15T13:41:58.765Z)
Latitude
-0.00003°
Longitude
111.17205°
Altitude
251.864 km
Speed
7.756 km/s
True Right ascension
22h 44m 59s
True Declination
0° 00' 00"
Sunlit
Object was in full shadow at epoch
Visualization orbit readout
Latitude
Unknown
Longitude
Unknown
Altitude
Unknown
Speed
Unknown
Apparent Right ascension
Unknown
Apparent Declination
Unknown
Sunlit
N/A
Visualization observer readout
Local Sidereal Time
00:11:38
Azimuth
Unknown
Elevation
Unknown
Doppler factor
Unknown
Orbital elements
Apogee altitude
249.483 km
Perigee altitude
240.861 km
Semi-major axis
6,623.309 km
Eccentricity
0.00065
Inclination
97.2486°
RAAN
341.2486°
Arg. of periapsis
265.869°
True anomaly
94.25938°
Mean anomaly
94.185°
Eccentric anomaly
94.22219°
Mean motion
4.02653 °/min
Orbital period
89.41 mins
BSTAR
0.0022393
Loading maneuver chart data...
Computing Atmospheric mass density...
Loading historical data...
Loading historical data...
Loading historical data...
Loading historical data...
Loading historical data...
Loading historical data...
Loading historical data...

Documentation

Showing up to 5 results
|